Altus AFB, OK

7:35 AM CST on December 15, 2019 (GMT -0600)
Altus Air Force Base

Weather History for KLTS - August, 2019

Change the Weather History Date:

Monday, August 19, 2019

  Actual Average Record
Temperature  
Mean Temperature 86 °F -  
Max Temperature 101 °F 94 °F 107 °F (2011)
Min Temperature 72 °F 70 °F 60 °F (2015)
Cooling Degree Days 21    
Growing Degree Days 36 (Base 50)    
Moisture  
Dew Point 68 °F    
Average Humidity 56    
Maximum Humidity 80    
Minimum Humidity 32    
Precipitation  
Precipitation 0.00 in - - ()
Sea Level Pressure  
Sea Level Pressure 29.88 in    
Wind  
Wind Speed 9 mph (SE)    
Max Wind Speed 14 mph    
Max Gust Speed 18 mph    
Visibility 10 miles    
Events      
Averages and records for this station are not official NWS values.
T = Trace of Precipitation, MM = Missing Value Source: NWS Daily Summary

Daily Weather History Graph

Daily Weather History Graph

Search for Another Location

Airport or City:

Astronomy

Aug. 19, 2019 Rise Set
Actual Time 7:00 AM CDT 8:20 PM CDT
Civil Twilight 6:34 AM CDT 8:46 PM CDT
Nautical Twilight 6:02 AM CDT 9:18 PM CDT
Astronomical Twilight 5:29 AM CDT 9:51 PM CDT
Moon 10:51 PM CDT (8/19) 10:35 AM CDT (8/19)
Length of Visible Light 14h 12m
Length of Day
13h 19m
Waning Gibbous, 85% of the Moon is Illuminated
Aug 19
Waning Gibbous
Aug 23
Last Quarter
Aug 30
New
Sep 5
First Quarter
Sep 13
Full

Hourly Weather History & Observations

Time (CDT) Temp. Heat Index Dew Point Humidity Pressure Visibility Wind Dir Wind Speed Gust Speed Precip Events Conditions
12:56 AM 81.1 °F 83.4 °F 66.7 °F 61% 29.84 in 10.0 mi SE 10.4 mph - N/A   Clear
1:56 AM 79.0 °F - 67.1 °F 67% 29.83 in 10.0 mi ESE 8.1 mph - N/A   Clear
2:56 AM 76.8 °F - 67.8 °F 74% 29.82 in 10.0 mi SSE 6.9 mph - N/A   Clear
3:56 AM 75.7 °F - 67.6 °F 76% 29.82 in 10.0 mi SE 4.6 mph - N/A   Clear
4:56 AM 75.4 °F - 66.9 °F 75% 29.83 in 10.0 mi ESE 11.5 mph - N/A   Clear
5:56 AM 75.0 °F - 66.9 °F 76% 29.85 in 10.0 mi SE 8.1 mph - N/A   Clear
6:56 AM 72.9 °F - 66.2 °F 80% 29.88 in 10.0 mi SE 5.8 mph - N/A   Clear
7:56 AM 75.2 °F - 66.7 °F 75% 29.89 in 10.0 mi SE 6.9 mph - N/A   Scattered Clouds
8:56 AM 80.4 °F 83.2 °F 68.4 °F 67% 29.91 in 10.0 mi SSE 11.5 mph - N/A   Scattered Clouds
9:56 AM 86.2 °F 89.4 °F 68.0 °F 54% 29.92 in 10.0 mi South 12.7 mph - N/A   Scattered Clouds
10:56 AM 91.4 °F 95.4 °F 68.0 °F 46% 29.93 in 10.0 mi South 8.1 mph - N/A   Partly Cloudy
11:56 AM 93.7 °F 98.8 °F 69.1 °F 44% 29.92 in 10.0 mi SSE 10.4 mph - N/A   Scattered Clouds
12:56 PM 96.1 °F 103.5 °F 71.2 °F 44% 29.91 in 10.0 mi SSE 10.4 mph - N/A   Partly Cloudy
1:56 PM 98.6 °F 105.5 °F 69.8 °F 39% 29.90 in 10.0 mi SSE 11.5 mph 18.4 mph N/A   Scattered Clouds
2:56 PM 99.3 °F 103.5 °F 66.7 °F 34% 29.89 in 10.0 mi SE 13.8 mph - N/A   Partly Cloudy
3:56 PM 100.4 °F 104.9 °F 66.2 °F 33% 29.87 in 10.0 mi SSE 12.7 mph - N/A   Partly Cloudy
4:56 PM 100.9 °F 105.3 °F 66.4 °F 32% 29.85 in 10.0 mi SSE 11.5 mph - N/A   Partly Cloudy
5:56 PM 99.5 °F 105.2 °F 68.5 °F 36% 29.85 in 10.0 mi SSE 9.2 mph - N/A   Clear
6:56 PM 96.4 °F 104.3 °F 71.6 °F 44% 29.85 in 10.0 mi SSE 10.4 mph - N/A   Partly Cloudy
7:56 PM 89.2 °F 94.1 °F 69.3 °F 52% 29.86 in 10.0 mi SE 8.1 mph - N/A   Partly Cloudy
8:56 PM 84.7 °F 87.9 °F 68.2 °F 57% 29.87 in 10.0 mi SE 8.1 mph - N/A   Clear
9:56 PM 82.2 °F 85.3 °F 68.4 °F 63% 29.90 in 10.0 mi SSE 9.2 mph - N/A   Partly Cloudy
10:56 PM 81.5 °F 83.9 °F 66.7 °F 61% 29.92 in 10.0 mi SE 9.2 mph - N/A   Partly Cloudy
11:56 PM 80.6 °F 82.9 °F 66.7 °F 63% 29.92 in 10.0 mi SE 10.4 mph - N/A   Partly Cloudy